GPS BIII-1 (43873 NORAD) Tracking and Keplerian Element Data

This shows tracking and keplerian element data for the satellite.

Feedback or suggestion? Click here.




ElementValue
Catalog43873
NameGPS BIII-1
Epoch Orbit1934
Epoch Day212.69708087
Epoch Year2021
RAAN162.5537
Inclination55.042
Eccentricity0.0013749
Argument of Perigee198.9354
Mean Anonmoly240.0973
Mean Motion2.00558751
Decay Rate2.7E-07
L11 43873U 18109A 21212.69708087 .00000027 00000-0 00000-0 0 9996
L22 43873 55.0420 162.5537 0013749 198.9354 240.0973 2.00558751 19340

Live tracking and technical data element details for GPS BIII-1 (NORAD 43873). GPS BIII-1 can be tracked NOW for your location showing map with azimuth and elevation plus other details from your city location.

Track the satellite on the map from your city or location and see movement details for azimuth, elevation, latitude, longitude, range, height, and movement on the map or in text.







IsCatalogInMostPopularTable: catalog: 43873, numindb: 1041
Update: records affected: 1



GetName: 43873 GPS BIII-1

Hit Count: updated at: Mon, 02 Aug 2021 03:28:03 GMT